Time,TemperatureF,DewpointF,PressureIn,WindDirection,WindDirectionDegrees,WindSpeedMPH,WindSpeedGustMPH,Humidity,HourlyPrecipIn,Conditions,Clouds,dailyrainin,SoftwareType,DateUTC
2013-07-11 00:02:00,60.3,53.6,29.76,NE,45,0.0,6.3,76,0.00,,---,0.00,cosweather0.1e,2013-07-11 07:02:00,
2013-07-11 00:07:00,60.1,53.6,29.76,North,6,0.0,3.1,76,0.00,,---,0.00,cosweather0.1e,2013-07-11 07:07:00,
2013-07-11 00:12:00,60.1,53.6,29.76,NE,53,0.0,5.4,77,0.00,,---,0.00,cosweather0.1e,2013-07-11 07:12:00,
2013-07-11 00:17:00,59.9,53.6,29.76,NNE,26,0.0,4.0,77,0.00,,---,0.00,cosweather0.1e,2013-07-11 07:17:00,
2013-07-11 00:22:00,59.9,53.6,29.76,NNW,339,0.0,4.9,79,0.00,,---,0.00,cosweather0.1e,2013-07-11 07:22:00,
2013-07-11 00:27:00,59.5,53.6,29.76,NE,41,0.0,4.5,80,0.00,,---,0.00,cosweather0.1e,2013-07-11 07:27:00,
2013-07-11 00:32:00,59.7,53.6,29.76,NNW,337,0.0,6.3,80,0.00,,---,0.00,cosweather0.1e,2013-07-11 07:32:00,
2013-07-11 00:37:00,59.7,53.6,29.76,North,357,0.0,5.8,81,0.00,,---,0.00,cosweather0.1e,2013-07-11 07:37:00,
2013-07-11 00:42:00,59.7,53.6,29.76,NE,42,0.0,3.6,81,0.00,,---,0.00,cosweather0.1e,2013-07-11 07:42:00,
2013-07-11 00:47:00,59.7,53.6,29.76,North,10,0.0,3.1,81,0.00,,---,0.00,cosweather0.1e,2013-07-11 07:47:00,
2013-07-11 00:52:00,59.7,53.6,29.76,North,357,0.0,4.0,81,0.00,,---,0.00,cosweather0.1e,2013-07-11 07:52:00,
2013-07-11 00:57:00,59.9,55.4,29.76,North,1,0.0,3.6,81,0.00,,---,0.00,cosweather0.1e,2013-07-11 07:57:00,
2013-07-11 01:02:00,59.9,55.4,29.76,North,353,0.0,4.0,81,0.00,,---,0.00,cosweather0.1e,2013-07-11 08:02:00,
2013-07-11 01:07:00,59.9,55.4,29.76,NNW,334,0.0,4.0,81,0.00,,---,0.00,cosweather0.1e,2013-07-11 08:07:00,
2013-07-11 01:12:00,60.1,55.4,29.76,North,0,0.0,4.5,81,0.00,,---,0.00,cosweather0.1e,2013-07-11 08:12:00,
2013-07-11 01:17:00,60.1,55.4,29.76,North,350,0.0,3.1,81,0.00,,---,0.00,cosweather0.1e,2013-07-11 08:17:00,
2013-07-11 01:22:00,60.1,55.4,29.76,NNW,328,0.0,4.9,81,0.00,,---,0.00,cosweather0.1e,2013-07-11 08:22:00,
2013-07-11 01:27:00,60.3,55.4,29.76,North,353,0.0,3.1,81,0.00,,---,0.00,cosweather0.1e,2013-07-11 08:27:00,
2013-07-11 01:32:00,60.1,55.4,29.76,North,357,0.0,7.2,80,0.00,,---,0.00,cosweather0.1e,2013-07-11 08:32:00,
2013-07-11 01:37:00,60.1,55.4,29.76,NNW,346,0.0,5.4,81,0.00,,---,0.00,cosweather0.1e,2013-07-11 08:37:00,
2013-07-11 01:42:00,59.9,55.4,29.76,NE,51,0.0,3.1,81,0.00,,---,0.00,cosweather0.1e,2013-07-11 08:42:00,
2013-07-11 01:47:00,59.7,53.6,29.76,North,357,0.0,3.1,82,0.00,,---,0.00,cosweather0.1e,2013-07-11 08:47:00,
2013-07-11 01:52:00,59.7,53.6,29.76,NNE,17,0.0,2.7,82,0.00,,---,0.00,cosweather0.1e,2013-07-11 08:52:00,
2013-07-11 01:57:00,59.9,55.4,29.76,NNE,23,0.0,3.1,82,0.00,,---,0.00,cosweather0.1e,2013-07-11 08:57:00,
2013-07-11 02:02:00,59.9,55.4,29.76,North,0,0.0,7.2,82,0.00,,---,0.00,cosweather0.1e,2013-07-11 09:02:00,
2013-07-11 02:07:00,60.1,55.4,29.76,NW,311,0.0,4.0,82,0.00,,---,0.00,cosweather0.1e,2013-07-11 09:07:00,
2013-07-11 02:12:00,60.1,55.4,29.76,North,357,0.0,3.1,82,0.00,,---,0.00,cosweather0.1e,2013-07-11 09:12:00,
2013-07-11 02:17:00,60.3,55.4,29.76,NW,308,0.0,4.0,81,0.00,,---,0.00,cosweather0.1e,2013-07-11 09:17:00,
2013-07-11 02:22:00,60.1,55.4,29.76,NNE,12,0.0,4.9,81,0.00,,---,0.00,cosweather0.1e,2013-07-11 09:22:00,
2013-07-11 02:27:00,60.1,55.4,29.76,NNW,346,0.0,2.7,81,0.00,,---,0.00,cosweather0.1e,2013-07-11 09:27:00,
2013-07-11 02:32:00,60.3,55.4,29.76,NNW,333,0.0,3.6,81,0.00,,---,0.00,cosweather0.1e,2013-07-11 09:32:00,
2013-07-11 02:37:00,60.4,55.4,29.76,NNW,329,0.0,4.9,81,0.00,,---,0.00,cosweather0.1e,2013-07-11 09:37:00,
2013-07-11 02:42:00,60.1,55.4,29.76,NNW,338,0.0,4.0,80,0.00,,---,0.00,cosweather0.1e,2013-07-11 09:42:00,
2013-07-11 02:47:00,60.1,55.4,29.76,NW,310,0.0,3.6,80,0.00,,---,0.00,cosweather0.1e,2013-07-11 09:47:00,
2013-07-11 02:53:00,59.9,55.4,29.76,WNW,303,0.0,3.6,80,0.00,,---,0.00,cosweather0.1e,2013-07-11 09:53:00,
2013-07-11 02:58:00,60.1,55.4,29.76,NW,312,0.0,3.1,80,0.00,,---,0.00,cosweather0.1e,2013-07-11 09:58:00,
2013-07-11 03:03:00,60.3,55.4,29.76,NNW,341,0.0,2.7,80,0.00,,---,0.00,cosweather0.1e,2013-07-11 10:03:00,
2013-07-11 03:08:00,60.3,55.4,29.76,WNW,302,0.0,4.0,80,0.00,,---,0.00,cosweather0.1e,2013-07-11 10:08:00,
2013-07-11 03:13:00,60.4,55.4,29.76,NW,321,0.0,2.7,80,0.00,,---,0.00,cosweather0.1e,2013-07-11 10:13:00,
2013-07-11 03:18:00,60.4,55.4,29.76,NW,308,0.0,2.7,80,0.00,,---,0.00,cosweather0.1e,2013-07-11 10:18:00,
2013-07-11 03:23:00,60.6,55.4,29.76,NNW,333,0.0,3.1,80,0.00,,---,0.00,cosweather0.1e,2013-07-11 10:23:00,
2013-07-11 03:28:00,60.4,53.6,29.76,NW,326,0.0,4.0,79,0.00,,---,0.00,cosweather0.1e,2013-07-11 10:28:00,
2013-07-11 03:33:00,60.4,53.6,29.76,NNW,344,0.0,2.7,79,0.00,,---,0.00,cosweather0.1e,2013-07-11 10:33:00,
2013-07-11 03:38:00,60.3,53.6,29.76,WNW,295,0.0,2.2,79,0.00,,---,0.00,cosweather0.1e,2013-07-11 10:38:00,
2013-07-11 03:43:00,60.4,53.6,29.76,WNW,287,0.0,4.0,79,0.00,,---,0.00,cosweather0.1e,2013-07-11 10:43:00,
2013-07-11 03:48:00,60.4,53.6,29.76,NNE,27,0.0,5.4,79,0.00,,---,0.00,cosweather0.1e,2013-07-11 10:48:00,
2013-07-11 03:53:00,60.3,53.6,29.76,NW,324,0.0,2.7,78,0.00,,---,0.00,cosweather0.1e,2013-07-11 10:53:00,
2013-07-11 03:58:00,60.1,53.6,29.76,North,9,0.0,0.0,78,0.00,,---,0.00,cosweather0.1e,2013-07-11 10:58:00,
2013-07-11 04:03:00,60.1,53.6,29.76,North,0,0.0,0.0,78,0.00,,---,0.00,cosweather0.1e,2013-07-11 11:03:00,
2013-07-11 04:08:00,60.1,53.6,29.76,NNE,27,0.0,0.0,78,0.00,,---,0.00,cosweather0.1e,2013-07-11 11:08:00,
2013-07-11 04:13:00,60.1,53.6,29.72,NNE,21,0.0,2.7,78,0.00,,---,0.00,cosweather0.1e,2013-07-11 11:13:00,
2013-07-11 04:18:00,60.3,53.6,29.72,NW,307,0.0,0.0,78,0.00,,---,0.00,cosweather0.1e,2013-07-11 11:18:00,
2013-07-11 04:23:00,60.3,53.6,29.76,NW,314,0.0,3.1,78,0.00,,---,0.00,cosweather0.1e,2013-07-11 11:23:00,
2013-07-11 04:28:00,60.3,53.6,29.76,North,0,0.0,2.7,78,0.00,,---,0.00,cosweather0.1e,2013-07-11 11:28:00,
2013-07-11 04:33:00,60.1,53.6,29.76,NE,39,0.0,0.0,77,0.00,,---,0.00,cosweather0.1e,2013-07-11 11:33:00,
2013-07-11 04:38:00,60.1,53.6,29.72,NNE,25,0.0,0.0,77,0.00,,---,0.00,cosweather0.1e,2013-07-11 11:38:00,
2013-07-11 04:43:00,60.3,53.6,29.72,NE,42,0.0,0.0,78,0.00,,---,0.00,cosweather0.1e,2013-07-11 11:43:00,
2013-07-11 04:48:00,60.3,53.6,29.72,ENE,67,0.0,2.2,77,0.00,,---,0.00,cosweather0.1e,2013-07-11 11:48:00,
2013-07-11 04:53:00,60.1,53.6,29.72,NE,42,0.0,2.2,77,0.00,,---,0.00,cosweather0.1e,2013-07-11 11:53:00,
2013-07-11 04:58:00,60.1,53.6,29.72,NE,41,0.0,2.7,77,0.00,,---,0.00,cosweather0.1e,2013-07-11 11:58:00,
2013-07-11 05:03:00,60.1,53.6,29.72,NE,41,0.0,0.0,77,0.00,,---,0.00,cosweather0.1e,2013-07-11 12:03:00,
2013-07-11 05:08:00,60.3,53.6,29.76,NE,40,0.0,0.0,77,0.00,,---,0.00,cosweather0.1e,2013-07-11 12:08:00,
2013-07-11 05:13:00,60.4,53.6,29.76,ENE,67,0.0,0.0,77,0.00,,---,0.00,cosweather0.1e,2013-07-11 12:13:00,
2013-07-11 05:18:00,60.4,53.6,29.76,ENE,71,0.0,0.0,77,0.00,,---,0.00,cosweather0.1e,2013-07-11 12:18:00,
2013-07-11 05:23:00,60.6,53.6,29.76,ENE,76,0.0,0.0,77,0.00,,---,0.00,cosweather0.1e,2013-07-11 12:23:00,
2013-07-11 05:28:00,60.4,53.6,29.76,NNE,18,0.0,2.7,76,0.00,,---,0.00,cosweather0.1e,2013-07-11 12:28:00,
2013-07-11 05:33:00,60.4,53.6,29.76,NNW,343,0.0,2.7,77,0.00,,---,0.00,cosweather0.1e,2013-07-11 12:33:00,
2013-07-11 05:38:00,60.4,53.6,29.76,ENE,64,0.0,2.7,76,0.00,,---,0.00,cosweather0.1e,2013-07-11 12:38:00,
2013-07-11 05:43:00,60.3,53.6,29.76,NE,48,0.0,0.0,76,0.00,,---,0.00,cosweather0.1e,2013-07-11 12:43:00,
2013-07-11 05:48:00,60.4,53.6,29.76,ENE,65,0.0,2.7,76,0.00,,---,0.00,cosweather0.1e,2013-07-11 12:48:00,
2013-07-11 05:54:00,60.4,53.6,29.76,NE,44,0.0,0.0,76,0.00,,---,0.00,cosweather0.1e,2013-07-11 12:54:00,
2013-07-11 05:59:00,60.4,53.6,29.76,NE,46,0.0,0.0,76,0.00,,---,0.00,cosweather0.1e,2013-07-11 12:59:00,
2013-07-11 06:04:00,60.6,53.6,29.76,NW,326,0.0,0.0,76,0.00,,---,0.00,cosweather0.1e,2013-07-11 13:04:00,
2013-07-11 06:09:00,60.6,53.6,29.76,NW,320,0.0,2.7,76,0.00,,---,0.00,cosweather0.1e,2013-07-11 13:09:00,
2013-07-11 06:14:00,60.4,53.6,29.76,NNW,335,0.0,2.2,76,0.00,,---,0.00,cosweather0.1e,2013-07-11 13:14:00,
2013-07-11 06:19:00,60.4,53.6,29.76,North,357,0.0,0.0,75,0.00,,---,0.00,cosweather0.1e,2013-07-11 13:19:00,
2013-07-11 06:24:00,60.4,53.6,29.76,NW,318,0.0,3.6,75,0.00,,---,0.00,cosweather0.1e,2013-07-11 13:24:00,
2013-07-11 06:30:00,60.4,53.6,29.76,NNW,330,0.0,3.1,75,0.00,,---,0.00,cosweather0.1e,2013-07-11 13:30:00,
2013-07-11 06:35:00,60.3,53.6,29.76,WNW,292,0.0,0.0,75,0.00,,---,0.00,cosweather0.1e,2013-07-11 13:35:00,
2013-07-11 06:40:00,60.4,53.6,29.76,West,281,0.0,0.0,75,0.00,,---,0.00,cosweather0.1e,2013-07-11 13:40:00,
2013-07-11 06:45:00,60.4,53.6,29.76,West,280,0.0,0.0,76,0.00,,---,0.00,cosweather0.1e,2013-07-11 13:45:00,
2013-07-11 06:50:00,60.6,53.6,29.76,West,281,0.0,0.0,76,0.00,,---,0.00,cosweather0.1e,2013-07-11 13:50:00,
2013-07-11 06:55:00,60.8,53.6,29.76,West,281,0.0,0.0,75,0.00,,---,0.00,cosweather0.1e,2013-07-11 13:55:00,
2013-07-11 07:00:00,60.8,53.6,29.76,North,0,0.0,4.0,75,0.00,,---,0.00,cosweather0.1e,2013-07-11 14:00:00,
2013-07-11 07:05:00,60.6,53.6,29.76,NE,56,0.0,2.7,75,0.00,,---,0.00,cosweather0.1e,2013-07-11 14:05:00,
2013-07-11 07:10:00,60.6,53.6,29.76,NE,56,0.0,2.2,75,0.00,,---,0.00,cosweather0.1e,2013-07-11 14:10:00,
2013-07-11 07:15:00,60.6,53.6,29.76,SSE,150,0.0,0.0,75,0.00,,---,0.00,cosweather0.1e,2013-07-11 14:15:00,
2013-07-11 07:20:00,60.6,53.6,29.76,NE,43,0.0,0.0,75,0.00,,---,0.00,cosweather0.1e,2013-07-11 14:20:00,
2013-07-11 07:26:00,60.6,53.6,29.76,NNE,13,0.0,0.0,75,0.00,,---,0.00,cosweather0.1e,2013-07-11 14:26:00,
2013-07-11 07:31:00,60.8,53.6,29.76,NW,313,0.0,4.0,75,0.00,,---,0.00,cosweather0.1e,2013-07-11 14:31:00,
2013-07-11 07:37:00,60.8,53.6,29.76,NNW,328,0.0,3.1,75,0.00,,---,0.00,cosweather0.1e,2013-07-11 14:37:00,
2013-07-11 07:42:00,60.8,53.6,29.76,NW,320,0.0,3.6,75,0.00,,---,0.00,cosweather0.1e,2013-07-11 14:42:00,
2013-07-11 07:47:00,60.8,53.6,29.76,NNW,337,0.0,2.7,75,0.00,,---,0.00,cosweather0.1e,2013-07-11 14:47:00,
2013-07-11 07:52:00,60.8,53.6,29.76,NW,310,0.0,3.6,75,0.00,,---,0.00,cosweather0.1e,2013-07-11 14:52:00,
2013-07-11 07:57:00,60.8,53.6,29.76,NNW,330,0.0,0.0,75,0.00,,---,0.00,cosweather0.1e,2013-07-11 14:57:00,
2013-07-11 08:02:00,60.8,53.6,29.76,NW,319,0.0,5.8,75,0.00,,---,0.00,cosweather0.1e,2013-07-11 15:02:00,
2013-07-11 08:07:00,61.0,53.6,29.76,NW,321,0.0,3.6,75,0.00,,---,0.00,cosweather0.1e,2013-07-11 15:07:00,
2013-07-11 08:12:00,60.8,51.8,29.76,NNW,344,0.0,0.0,74,0.00,,---,0.00,cosweather0.1e,2013-07-11 15:12:00,
2013-07-11 08:17:00,60.8,51.8,29.76,NNW,327,0.0,4.0,74,0.00,,---,0.00,cosweather0.1e,2013-07-11 15:17:00,
2013-07-11 08:22:00,60.8,51.8,29.76,North,357,0.0,2.7,74,0.00,,---,0.00,cosweather0.1e,2013-07-11 15:22:00,
2013-07-11 08:28:00,60.8,51.8,29.76,WNW,292,0.0,3.6,74,0.00,,---,0.00,cosweather0.1e,2013-07-11 15:28:00,
2013-07-11 08:33:00,60.8,51.8,29.76,NW,320,0.0,8.1,74,0.00,,---,0.00,cosweather0.1e,2013-07-11 15:33:00,
2013-07-11 08:38:00,60.8,51.8,29.76,NNW,335,0.0,5.4,74,0.00,,---,0.00,cosweather0.1e,2013-07-11 15:38:00,
2013-07-11 08:44:00,60.6,51.8,29.76,WNW,298,0.0,3.1,74,0.00,,---,0.00,cosweather0.1e,2013-07-11 15:44:00,
2013-07-11 08:49:00,60.4,51.8,29.76,NW,315,0.0,3.6,74,0.00,,---,0.00,cosweather0.1e,2013-07-11 15:49:00,
2013-07-11 08:54:00,60.4,51.8,29.76,NNW,334,0.0,2.7,74,0.00,,---,0.00,cosweather0.1e,2013-07-11 15:54:00,
2013-07-11 08:59:00,60.4,51.8,29.76,WNW,289,0.0,3.6,74,0.00,,---,0.00,cosweather0.1e,2013-07-11 15:59:00,
2013-07-11 09:04:00,60.6,51.8,29.76,WNW,300,0.0,4.0,74,0.00,,---,0.00,cosweather0.1e,2013-07-11 16:04:00,
2013-07-11 09:10:00,61.0,51.8,29.76,NW,312,0.0,2.2,74,0.00,,---,0.00,cosweather0.1e,2013-07-11 16:10:00,
2013-07-11 09:15:00,61.3,51.8,29.76,NW,314,0.0,5.8,74,0.00,,---,0.00,cosweather0.1e,2013-07-11 16:15:00,
2013-07-11 09:20:00,61.3,51.8,29.76,NNW,334,0.0,3.1,73,0.00,,---,0.00,cosweather0.1e,2013-07-11 16:20:00,
2013-07-11 09:25:00,61.3,51.8,29.76,WNW,300,0.0,6.3,73,0.00,,---,0.00,cosweather0.1e,2013-07-11 16:25:00,
2013-07-11 09:30:00,61.7,53.6,29.76,North,0,0.0,3.1,73,0.00,,---,0.00,cosweather0.1e,2013-07-11 16:30:00,
2013-07-11 09:35:00,61.7,53.6,29.76,NW,310,0.0,3.6,72,0.00,,---,0.00,cosweather0.1e,2013-07-11 16:35:00,
2013-07-11 09:40:00,61.9,53.6,29.76,North,0,0.0,3.6,72,0.00,,---,0.00,cosweather0.1e,2013-07-11 16:40:00,
2013-07-11 09:45:00,61.9,53.6,29.76,NW,310,0.0,5.4,72,0.00,,---,0.00,cosweather0.1e,2013-07-11 16:45:00,
2013-07-11 09:51:00,62.1,53.6,29.76,NW,324,0.0,2.2,71,0.00,,---,0.00,cosweather0.1e,2013-07-11 16:51:00,
2013-07-11 09:56:00,62.4,53.6,29.76,WNW,295,0.0,0.0,71,0.00,,---,0.00,cosweather0.1e,2013-07-11 16:56:00,
2013-07-11 10:01:00,62.8,53.6,29.76,North,357,0.0,3.6,70,0.00,,---,0.00,cosweather0.1e,2013-07-11 17:01:00,
2013-07-11 10:06:00,63.0,51.8,29.76,WNW,292,0.0,2.7,69,0.00,,---,0.00,cosweather0.1e,2013-07-11 17:06:00,
2013-07-11 10:11:00,63.0,51.8,29.76,WNW,299,0.0,3.1,69,0.00,,---,0.00,cosweather0.1e,2013-07-11 17:11:00,
2013-07-11 10:16:00,63.3,51.8,29.76,WNW,302,0.0,3.1,69,0.00,,---,0.00,cosweather0.1e,2013-07-11 17:16:00,
2013-07-11 10:21:00,63.7,53.6,29.76,NNW,335,0.0,2.7,69,0.00,,---,0.00,cosweather0.1e,2013-07-11 17:21:00,
2013-07-11 10:27:00,63.9,53.6,29.76,NNW,335,0.0,4.0,68,0.00,,---,0.00,cosweather0.1e,2013-07-11 17:27:00,
2013-07-11 10:32:00,63.9,53.6,29.76,WNW,298,0.0,4.0,67,0.00,,---,0.00,cosweather0.1e,2013-07-11 17:32:00,
2013-07-11 10:37:00,64.2,53.6,29.76,NNW,335,0.0,6.3,68,0.00,,---,0.00,cosweather0.1e,2013-07-11 17:37:00,
2013-07-11 10:42:00,64.4,53.6,29.76,North,357,0.0,2.2,66,0.00,,---,0.00,cosweather0.1e,2013-07-11 17:42:00,
2013-07-11 10:47:00,64.8,53.6,29.76,SW,222,0.0,4.0,66,0.00,,---,0.00,cosweather0.1e,2013-07-11 17:47:00,
2013-07-11 10:53:00,65.1,53.6,29.76,ESE,117,0.0,3.1,66,0.00,,---,0.00,cosweather0.1e,2013-07-11 17:53:00,
2013-07-11 10:57:00,65.7,55.4,29.76,SSW,198,0.0,3.6,66,0.00,,---,0.00,cosweather0.1e,2013-07-11 17:57:00,
2013-07-11 11:03:00,66.2,53.6,29.76,NW,320,0.0,4.9,65,0.00,,---,0.00,cosweather0.1e,2013-07-11 18:03:00,
2013-07-11 11:08:00,66.6,53.6,29.76,West,259,0.0,2.7,65,0.00,,---,0.00,cosweather0.1e,2013-07-11 18:08:00,
2013-07-11 11:13:00,67.1,55.4,29.76,North,353,0.0,5.4,65,0.00,,---,0.00,cosweather0.1e,2013-07-11 18:13:00,
2013-07-11 11:18:00,67.3,55.4,29.76,North,353,0.0,4.9,62,0.00,,---,0.00,cosweather0.1e,2013-07-11 18:18:00,
2013-07-11 11:23:00,67.8,53.6,29.76,NW,318,0.0,2.7,59,0.00,,---,0.00,cosweather0.1e,2013-07-11 18:23:00,
2013-07-11 11:28:00,68.0,53.6,29.76,WNW,286,0.0,3.6,58,0.00,,---,0.00,cosweather0.1e,2013-07-11 18:28:00,
2013-07-11 11:33:00,68.2,53.6,29.76,SE,145,0.0,4.0,58,0.00,,---,0.00,cosweather0.1e,2013-07-11 18:33:00,
2013-07-11 11:38:00,68.7,51.8,29.76,NW,325,0.0,2.7,57,0.00,,---,0.00,cosweather0.1e,2013-07-11 18:38:00,
2013-07-11 11:43:00,69.3,53.6,29.76,West,269,0.0,3.1,58,0.00,,---,0.00,cosweather0.1e,2013-07-11 18:43:00,
2013-07-11 11:48:00,69.8,53.6,29.76,SW,235,0.0,3.6,57,0.00,,---,0.00,cosweather0.1e,2013-07-11 18:48:00,
2013-07-11 11:54:00,70.2,53.6,29.76,WSW,238,0.0,3.6,55,0.00,,---,0.00,cosweather0.1e,2013-07-11 18:54:00,
2013-07-11 11:59:00,70.5,53.6,29.76,SW,226,0.0,4.0,55,0.00,,---,0.00,cosweather0.1e,2013-07-11 18:59:00,
2013-07-11 12:04:00,71.1,53.6,29.76,West,272,0.0,5.4,54,0.00,,---,0.00,cosweather0.1e,2013-07-11 19:04:00,
2013-07-11 12:09:00,71.4,53.6,29.76,WNW,283,0.0,5.4,52,0.00,,---,0.00,cosweather0.1e,2013-07-11 19:09:00,
2013-07-11 12:14:00,71.6,51.8,29.76,WNW,299,0.0,6.3,50,0.00,,---,0.00,cosweather0.1e,2013-07-11 19:14:00,
2013-07-11 12:19:00,72.0,51.8,29.76,WNW,300,0.0,6.7,51,0.00,,---,0.00,cosweather0.1e,2013-07-11 19:19:00,
2013-07-11 12:24:00,72.3,51.8,29.76,NW,325,0.0,3.1,48,0.00,,---,0.00,cosweather0.1e,2013-07-11 19:24:00,
2013-07-11 12:29:00,72.5,51.8,29.76,NNW,338,0.0,2.7,48,0.00,,---,0.00,cosweather0.1e,2013-07-11 19:29:00,
2013-07-11 12:34:00,72.7,51.8,29.76,West,277,0.0,4.0,48,0.00,,---,0.00,cosweather0.1e,2013-07-11 19:34:00,
2013-07-11 12:39:00,73.0,51.8,29.76,WNW,298,0.0,5.4,48,0.00,,---,0.00,cosweather0.1e,2013-07-11 19:39:00,
2013-07-11 12:44:00,73.2,51.8,29.76,SW,217,0.0,3.1,48,0.00,,---,0.00,cosweather0.1e,2013-07-11 19:44:00,
2013-07-11 12:50:00,73.8,51.8,29.76,West,264,0.0,5.8,48,0.00,,---,0.00,cosweather0.1e,2013-07-11 19:50:00,
2013-07-11 12:55:00,74.3,53.6,29.76,WSW,245,0.0,2.2,48,0.00,,---,0.00,cosweather0.1e,2013-07-11 19:55:00,
2013-07-11 13:00:00,74.5,51.8,29.76,South,186,0.0,4.9,45,0.00,,---,0.00,cosweather0.1e,2013-07-11 20:00:00,
2013-07-11 13:05:00,74.7,53.6,29.76,SW,218,0.0,4.9,46,0.00,,---,0.00,cosweather0.1e,2013-07-11 20:05:00,
2013-07-11 13:10:00,74.8,53.6,29.72,SW,234,0.0,3.1,46,0.00,,---,0.00,cosweather0.1e,2013-07-11 20:10:00,
2013-07-11 13:15:00,75.2,51.8,29.72,WNW,302,0.0,3.6,45,0.00,,---,0.00,cosweather0.1e,2013-07-11 20:15:00,
2013-07-11 13:20:00,75.4,51.8,29.72,NW,313,0.0,3.1,44,0.00,,---,0.00,cosweather0.1e,2013-07-11 20:20:00,
2013-07-11 13:25:00,75.7,51.8,29.72,WNW,298,0.0,5.4,43,0.00,,---,0.00,cosweather0.1e,2013-07-11 20:25:00,
2013-07-11 13:30:00,76.3,53.6,29.72,NW,308,0.0,4.0,44,0.00,,---,0.00,cosweather0.1e,2013-07-11 20:30:00,
2013-07-11 13:35:00,76.1,53.6,29.72,North,0,0.0,3.1,43,0.00,,---,0.00,cosweather0.1e,2013-07-11 20:35:00,
2013-07-11 13:40:00,76.1,53.6,29.72,SW,221,0.0,10.5,43,0.00,,---,0.00,cosweather0.1e,2013-07-11 20:40:00,
2013-07-11 13:45:00,75.9,51.8,29.72,WNW,287,0.0,2.7,43,0.00,,---,0.00,cosweather0.1e,2013-07-11 20:45:00,
2013-07-11 13:51:00,76.1,53.6,29.72,NW,317,0.0,5.4,43,0.00,,---,0.00,cosweather0.1e,2013-07-11 20:51:00,
2013-07-11 13:56:00,76.1,51.8,29.72,NW,320,0.0,10.5,42,0.00,,---,0.00,cosweather0.1e,2013-07-11 20:56:00,
2013-07-11 14:01:00,76.1,51.8,29.72,WNW,290,0.0,3.1,42,0.00,,---,0.00,cosweather0.1e,2013-07-11 21:01:00,
2013-07-11 14:06:00,75.9,50.0,29.72,West,275,0.0,4.0,42,0.00,,---,0.00,cosweather0.1e,2013-07-11 21:06:00,
2013-07-11 14:11:00,75.9,51.8,29.72,NNW,345,0.0,6.7,43,0.00,,---,0.00,cosweather0.1e,2013-07-11 21:11:00,
2013-07-11 14:16:00,75.9,50.0,29.72,West,278,0.0,4.0,42,0.00,,---,0.00,cosweather0.1e,2013-07-11 21:16:00,
2013-07-11 14:21:00,75.7,50.0,29.72,NW,316,0.0,8.3,42,0.00,,---,0.00,cosweather0.1e,2013-07-11 21:21:00,
2013-07-11 14:27:00,75.7,50.0,29.72,WNW,301,0.0,10.1,42,0.00,,---,0.00,cosweather0.1e,2013-07-11 21:27:00,
2013-07-11 14:32:00,75.7,50.0,29.72,West,262,0.0,3.6,42,0.00,,---,0.00,cosweather0.1e,2013-07-11 21:32:00,
2013-07-11 14:37:00,75.7,50.0,29.72,WNW,289,0.0,2.7,42,0.00,,---,0.00,cosweather0.1e,2013-07-11 21:37:00,
2013-07-11 14:42:00,75.6,50.0,29.72,North,357,0.0,4.9,42,0.00,,---,0.00,cosweather0.1e,2013-07-11 21:42:00,
2013-07-11 14:48:00,75.6,50.0,29.72,WNW,303,0.0,6.3,42,0.00,,---,0.00,cosweather0.1e,2013-07-11 21:48:00,
2013-07-11 14:53:00,75.6,50.0,29.72,NW,319,0.0,5.8,42,0.00,,---,0.00,cosweather0.1e,2013-07-11 21:53:00,
2013-07-11 14:58:00,75.2,50.0,29.72,NW,304,0.0,5.8,42,0.00,,---,0.00,cosweather0.1e,2013-07-11 21:58:00,
2013-07-11 15:03:00,74.8,51.8,29.72,NW,316,0.0,9.6,44,0.00,,---,0.00,cosweather0.1e,2013-07-11 22:03:00,
2013-07-11 15:08:00,74.5,51.8,29.72,NW,309,0.0,2.7,44,0.00,,---,0.00,cosweather0.1e,2013-07-11 22:08:00,
2013-07-11 15:13:00,74.3,51.8,29.72,NW,306,0.0,4.0,44,0.00,,---,0.00,cosweather0.1e,2013-07-11 22:13:00,
2013-07-11 15:18:00,74.1,51.8,29.72,NW,309,0.0,5.8,45,0.00,,---,0.00,cosweather0.1e,2013-07-11 22:18:00,
2013-07-11 15:24:00,73.9,50.0,29.68,WSW,245,0.0,7.6,44,0.00,,---,0.00,cosweather0.1e,2013-07-11 22:24:00,
2013-07-11 15:29:00,73.8,50.0,29.68,WNW,299,0.0,10.5,44,0.00,,---,0.00,cosweather0.1e,2013-07-11 22:29:00,
2013-07-11 15:34:00,73.6,50.0,29.68,NNW,328,0.0,11.0,44,0.00,,---,0.00,cosweather0.1e,2013-07-11 22:34:00,
2013-07-11 15:39:00,73.6,50.0,29.68,NNW,339,0.0,8.7,44,0.00,,---,0.00,cosweather0.1e,2013-07-11 22:39:00,
2013-07-11 15:44:00,73.4,50.0,29.68,SSW,213,0.0,3.1,44,0.00,,---,0.00,cosweather0.1e,2013-07-11 22:44:00,
2013-07-11 15:49:00,73.4,51.8,29.68,SW,227,0.0,10.1,45,0.00,,---,0.00,cosweather0.1e,2013-07-11 22:49:00,
2013-07-11 15:54:00,73.4,50.0,29.68,North,357,0.0,5.8,44,0.00,,---,0.00,cosweather0.1e,2013-07-11 22:54:00,
2013-07-11 16:00:00,73.0,51.8,29.68,NW,312,0.0,6.3,45,0.00,,---,0.00,cosweather0.1e,2013-07-11 23:00:00,
2013-07-11 16:06:00,72.9,51.8,29.68,NW,316,0.0,5.8,45,0.00,,---,0.00,cosweather0.1e,2013-07-11 23:06:00,
2013-07-11 16:11:00,72.9,51.8,29.68,North,357,0.0,5.4,46,0.00,,---,0.00,cosweather0.1e,2013-07-11 23:11:00,
2013-07-11 16:16:00,73.0,51.8,29.68,NW,326,0.0,5.4,45,0.00,,---,0.00,cosweather0.1e,2013-07-11 23:16:00,
2013-07-11 16:21:00,72.9,51.8,29.68,North,349,0.0,6.3,45,0.00,,---,0.00,cosweather0.1e,2013-07-11 23:21:00,
2013-07-11 16:26:00,72.9,51.8,29.68,NW,310,0.0,11.0,45,0.00,,---,0.00,cosweather0.1e,2013-07-11 23:26:00,
2013-07-11 16:32:00,72.7,51.8,29.68,NW,304,0.0,6.3,45,0.00,,---,0.00,cosweather0.1e,2013-07-11 23:32:00,
2013-07-11 16:37:00,72.5,51.8,29.68,NNW,346,0.0,6.3,45,0.00,,---,0.00,cosweather0.1e,2013-07-11 23:37:00,
2013-07-11 16:42:00,72.3,50.0,29.68,WNW,303,0.0,5.4,45,0.00,,---,0.00,cosweather0.1e,2013-07-11 23:42:00,
2013-07-11 16:47:00,72.3,50.0,29.68,WNW,284,0.0,8.7,45,0.00,,---,0.00,cosweather0.1e,2013-07-11 23:47:00,
2013-07-11 16:52:00,72.0,50.0,29.68,NW,313,0.0,8.7,45,0.00,,---,0.00,cosweather0.1e,2013-07-11 23:52:00,
2013-07-11 16:57:00,71.6,50.0,29.68,NNW,334,0.0,8.1,46,0.00,,---,0.00,cosweather0.1e,2013-07-11 23:57:00,
2013-07-11 17:03:00,71.4,50.0,29.68,WNW,298,0.0,11.0,46,0.00,,---,0.00,cosweather0.1e,2013-07-12 00:03:00,
2013-07-11 17:08:00,71.4,50.0,29.68,NW,304,0.0,8.3,47,0.00,,---,0.00,cosweather0.1e,2013-07-12 00:08:00,
2013-07-11 17:14:00,71.2,50.0,29.68,North,350,0.0,4.9,47,0.00,,---,0.00,cosweather0.1e,2013-07-12 00:14:00,
2013-07-11 17:19:00,71.2,50.0,29.68,NW,308,0.0,3.6,47,0.00,,---,0.00,cosweather0.1e,2013-07-12 00:19:00,
2013-07-11 17:24:00,71.1,50.0,29.68,NNW,348,0.0,8.1,47,0.00,,---,0.00,cosweather0.1e,2013-07-12 00:24:00,
2013-07-11 17:30:00,70.9,50.0,29.68,NNE,18,0.0,7.2,47,0.00,,---,0.00,cosweather0.1e,2013-07-12 00:30:00,
2013-07-11 17:35:00,70.7,50.0,29.68,NW,316,0.0,5.8,47,0.00,,---,0.00,cosweather0.1e,2013-07-12 00:35:00,
2013-07-11 17:40:00,70.5,50.0,29.68,NW,319,0.0,5.8,48,0.00,,---,0.00,cosweather0.1e,2013-07-12 00:40:00,
2013-07-11 17:45:00,70.3,50.0,29.68,NW,306,0.0,8.3,48,0.00,,---,0.00,cosweather0.1e,2013-07-12 00:45:00,
2013-07-11 17:50:00,70.3,50.0,29.68,NNW,335,0.0,5.4,48,0.00,,---,0.00,cosweather0.1e,2013-07-12 00:50:00,
2013-07-11 17:56:00,70.3,50.0,29.68,NW,310,0.0,13.2,48,0.00,,---,0.00,cosweather0.1e,2013-07-12 00:56:00,
2013-07-11 18:01:00,70.2,50.0,29.68,NNW,346,0.0,8.3,48,0.00,,---,0.00,cosweather0.1e,2013-07-12 01:01:00,
2013-07-11 18:06:00,70.0,50.0,29.68,NW,317,0.0,4.0,49,0.00,,---,0.00,cosweather0.1e,2013-07-12 01:06:00,
2013-07-11 18:11:00,69.6,50.0,29.68,NW,313,0.0,7.2,49,0.00,,---,0.00,cosweather0.1e,2013-07-12 01:11:00,
2013-07-11 18:16:00,69.6,50.0,29.68,North,350,0.0,8.7,50,0.00,,---,0.00,cosweather0.1e,2013-07-12 01:16:00,
2013-07-11 18:21:00,69.4,50.0,29.68,NW,325,0.0,11.0,49,0.00,,---,0.00,cosweather0.1e,2013-07-12 01:21:00,
2013-07-11 18:26:00,69.3,50.0,29.68,NNW,328,0.0,7.6,50,0.00,,---,0.00,cosweather0.1e,2013-07-12 01:26:00,
2013-07-11 18:31:00,69.1,50.0,29.68,NW,322,0.0,5.4,51,0.00,,---,0.00,cosweather0.1e,2013-07-12 01:31:00,
2013-07-11 18:36:00,69.1,50.0,29.68,North,357,0.0,4.0,51,0.00,,---,0.00,cosweather0.1e,2013-07-12 01:36:00,
2013-07-11 18:41:00,69.1,50.0,29.68,WNW,301,0.0,5.8,51,0.00,,---,0.00,cosweather0.1e,2013-07-12 01:41:00,
2013-07-11 18:47:00,68.9,50.0,29.68,NW,314,0.0,6.3,51,0.00,,---,0.00,cosweather0.1e,2013-07-12 01:47:00,
2013-07-11 18:53:00,68.5,50.0,29.68,North,357,0.0,6.3,52,0.00,,---,0.00,cosweather0.1e,2013-07-12 01:53:00,
2013-07-11 18:58:00,68.2,50.0,29.68,NW,326,0.0,3.6,53,0.00,,---,0.00,cosweather0.1e,2013-07-12 01:58:00,
2013-07-11 19:03:00,68.0,51.8,29.68,NW,312,0.0,4.0,55,0.00,,---,0.00,cosweather0.1e,2013-07-12 02:03:00,
2013-07-11 19:08:00,67.6,51.8,29.68,NW,305,0.0,5.8,56,0.00,,---,0.00,cosweather0.1e,2013-07-12 02:08:00,
2013-07-11 19:13:00,67.5,53.6,29.68,NNW,344,0.0,4.0,58,0.00,,---,0.00,cosweather0.1e,2013-07-12 02:13:00,
2013-07-11 19:19:00,67.3,53.6,29.68,NNW,329,0.0,3.6,58,0.00,,---,0.00,cosweather0.1e,2013-07-12 02:19:00,
2013-07-11 19:24:00,67.1,53.6,29.68,WNW,301,0.0,4.9,59,0.00,,---,0.00,cosweather0.1e,2013-07-12 02:24:00,
2013-07-11 19:29:00,66.9,51.8,29.68,NNW,340,0.0,5.4,58,0.00,,---,0.00,cosweather0.1e,2013-07-12 02:29:00,
2013-07-11 19:34:00,66.7,50.0,29.68,NW,324,0.0,8.1,57,0.00,,---,0.00,cosweather0.1e,2013-07-12 02:34:00,
2013-07-11 19:40:00,66.6,50.0,29.68,NNW,334,0.0,4.9,57,0.00,,---,0.00,cosweather0.1e,2013-07-12 02:40:00,
2013-07-11 19:45:00,66.2,51.8,29.68,WNW,298,0.0,8.1,58,0.00,,---,0.00,cosweather0.1e,2013-07-12 02:45:00,
2013-07-11 19:50:00,65.8,51.8,29.68,NW,310,0.0,8.1,58,0.00,,---,0.00,cosweather0.1e,2013-07-12 02:50:00,
2013-07-11 19:55:00,65.7,51.8,29.68,NW,321,0.0,5.4,59,0.00,,---,0.00,cosweather0.1e,2013-07-12 02:55:00,
2013-07-11 20:00:00,65.5,51.8,29.68,NW,320,0.0,6.3,59,0.00,,---,0.00,cosweather0.1e,2013-07-12 03:00:00,
2013-07-11 20:05:00,65.3,51.8,29.68,North,353,0.0,5.4,59,0.00,,---,0.00,cosweather0.1e,2013-07-12 03:05:00,
2013-07-11 20:10:00,65.3,51.8,29.68,WNW,294,0.0,3.6,59,0.00,,---,0.00,cosweather0.1e,2013-07-12 03:10:00,
2013-07-11 20:15:00,64.9,50.0,29.68,NW,313,0.0,4.9,60,0.00,,---,0.00,cosweather0.1e,2013-07-12 03:15:00,
2013-07-11 20:21:00,64.8,50.0,29.68,NW,305,0.0,3.6,60,0.00,,---,0.00,cosweather0.1e,2013-07-12 03:21:00,
2013-07-11 20:26:00,64.8,50.0,29.68,WNW,302,0.0,4.0,60,0.00,,---,0.00,cosweather0.1e,2013-07-12 03:26:00,
2013-07-11 20:31:00,64.6,50.0,29.68,NW,326,0.0,3.6,60,0.00,,---,0.00,cosweather0.1e,2013-07-12 03:31:00,
2013-07-11 20:36:00,64.4,50.0,29.68,North,357,0.0,4.0,61,0.00,,---,0.00,cosweather0.1e,2013-07-12 03:36:00,
2013-07-11 20:42:00,64.2,51.8,29.68,NW,306,0.0,4.9,62,0.00,,---,0.00,cosweather0.1e,2013-07-12 03:42:00,
2013-07-11 20:47:00,64.0,51.8,29.68,NNW,332,0.0,3.6,62,0.00,,---,0.00,cosweather0.1e,2013-07-12 03:47:00,
2013-07-11 20:52:00,63.9,51.8,29.68,North,6,0.0,4.9,63,0.00,,---,0.00,cosweather0.1e,2013-07-12 03:52:00,
2013-07-11 20:58:00,63.3,50.0,29.72,NW,316,0.0,4.9,64,0.00,,---,0.00,cosweather0.1e,2013-07-12 03:58:00,
2013-07-11 21:01:00,63.1,50.0,29.72,NNW,340,0.0,4.9,64,0.00,,---,0.00,cosweather0.1e,2013-07-12 04:01:00,
2013-07-11 21:02:00,63.0,50.0,29.72,North,0,0.0,4.0,64,0.00,,---,0.00,cosweather0.1e,2013-07-12 04:02:00,
2013-07-11 21:07:00,63.0,50.0,29.72,NNW,346,0.0,4.9,65,0.00,,---,0.00,cosweather0.1e,2013-07-12 04:07:00,
2013-07-11 21:12:00,62.6,51.8,29.72,NNW,342,0.0,4.0,66,0.00,,---,0.00,cosweather0.1e,2013-07-12 04:12:00,
2013-07-11 21:17:00,62.2,51.8,29.72,NNE,25,0.0,4.9,68,0.00,,---,0.00,cosweather0.1e,2013-07-12 04:17:00,
2013-07-11 21:22:00,62.1,51.8,29.72,NNW,341,0.0,2.7,68,0.00,,---,0.00,cosweather0.1e,2013-07-12 04:22:00,
2013-07-11 21:27:00,61.9,51.8,29.72,ENE,65,0.0,7.6,69,0.00,,---,0.00,cosweather0.1e,2013-07-12 04:27:00,
2013-07-11 21:32:00,61.7,51.8,29.72,North,353,0.0,8.1,69,0.00,,---,0.00,cosweather0.1e,2013-07-12 04:32:00,
2013-07-11 21:37:00,61.5,51.8,29.72,North,5,0.0,5.8,70,0.00,,---,0.00,cosweather0.1e,2013-07-12 04:37:00,
2013-07-11 21:42:00,61.5,51.8,29.72,North,353,0.0,3.1,70,0.00,,---,0.00,cosweather0.1e,2013-07-12 04:42:00,
2013-07-11 21:47:00,61.3,51.8,29.72,NW,318,0.0,2.2,70,0.00,,---,0.00,cosweather0.1e,2013-07-12 04:47:00,
2013-07-11 21:52:00,61.5,51.8,29.72,NW,321,0.0,3.6,70,0.00,,---,0.00,cosweather0.1e,2013-07-12 04:52:00,
2013-07-11 21:57:00,61.5,51.8,29.72,North,0,0.0,6.3,70,0.00,,---,0.00,cosweather0.1e,2013-07-12 04:57:00,
2013-07-11 22:02:00,61.3,51.8,29.72,North,353,0.0,5.4,70,0.00,,---,0.00,cosweather0.1e,2013-07-12 05:02:00,
2013-07-11 22:07:00,61.3,51.8,29.72,North,0,0.0,4.0,70,0.00,,---,0.00,cosweather0.1e,2013-07-12 05:07:00,
2013-07-11 22:12:00,61.2,51.8,29.72,North,350,0.0,4.0,71,0.00,,---,0.00,cosweather0.1e,2013-07-12 05:12:00,
2013-07-11 22:17:00,61.0,51.8,29.72,NNW,345,0.0,3.1,71,0.00,,---,0.00,cosweather0.1e,2013-07-12 05:17:00,
2013-07-11 22:22:00,60.8,51.8,29.72,NNW,341,0.0,4.0,72,0.00,,---,0.00,cosweather0.1e,2013-07-12 05:22:00,
2013-07-11 22:27:00,60.6,51.8,29.72,NE,46,0.0,6.3,73,0.00,,---,0.00,cosweather0.1e,2013-07-12 05:27:00,
2013-07-11 22:32:00,60.4,51.8,29.72,North,357,0.0,2.7,73,0.00,,---,0.00,cosweather0.1e,2013-07-12 05:32:00,
2013-07-11 22:37:00,60.4,51.8,29.72,North,0,0.0,4.9,73,0.00,,---,0.00,cosweather0.1e,2013-07-12 05:37:00,
2013-07-11 22:42:00,60.4,51.8,29.72,NNE,30,0.0,5.8,73,0.00,,---,0.00,cosweather0.1e,2013-07-12 05:42:00,
2013-07-11 22:47:00,60.3,51.8,29.72,North,0,0.0,4.0,74,0.00,,---,0.00,cosweather0.1e,2013-07-12 05:47:00,
2013-07-11 22:52:00,60.3,51.8,29.72,NNW,348,0.0,3.1,74,0.00,,---,0.00,cosweather0.1e,2013-07-12 05:52:00,
2013-07-11 22:57:00,60.3,51.8,29.72,North,11,0.0,3.1,74,0.00,,---,0.00,cosweather0.1e,2013-07-12 05:57:00,
2013-07-11 23:02:00,60.3,51.8,29.72,North,349,0.0,3.1,74,0.00,,---,0.00,cosweather0.1e,2013-07-12 06:02:00,
2013-07-11 23:07:00,60.1,51.8,29.72,North,4,0.0,2.7,74,0.00,,---,0.00,cosweather0.1e,2013-07-12 06:07:00,
2013-07-11 23:12:00,60.1,51.8,29.72,NNE,17,0.0,3.6,74,0.00,,---,0.00,cosweather0.1e,2013-07-12 06:12:00,
2013-07-11 23:17:00,60.1,51.8,29.72,NNW,339,0.0,2.7,74,0.00,,---,0.00,cosweather0.1e,2013-07-12 06:17:00,
2013-07-11 23:22:00,60.1,51.8,29.72,North,7,0.0,3.1,74,0.00,,---,0.00,cosweather0.1e,2013-07-12 06:22:00,
2013-07-11 23:27:00,60.1,51.8,29.72,NNE,23,0.0,5.8,74,0.00,,---,0.00,cosweather0.1e,2013-07-12 06:27:00,
2013-07-11 23:32:00,60.1,53.6,29.72,NNE,27,0.0,4.0,75,0.00,,---,0.00,cosweather0.1e,2013-07-12 06:32:00,
2013-07-11 23:37:00,59.9,53.6,29.72,NNE,19,0.0,3.1,75,0.00,,---,0.00,cosweather0.1e,2013-07-12 06:37:00,
2013-07-11 23:42:00,59.7,50.0,29.76,NNE,29,0.0,3.1,74,0.00,,---,0.00,cosweather0.1e,2013-07-12 06:42:00,
2013-07-11 23:47:00,59.7,51.8,29.76,NNE,23,0.0,3.1,75,0.00,,---,0.00,cosweather0.1e,2013-07-12 06:47:00,
2013-07-11 23:52:00,59.5,51.8,29.76,NNE,30,0.0,4.9,75,0.00,,---,0.00,cosweather0.1e,2013-07-12 06:52:00,
2013-07-11 23:57:00,59.4,51.8,29.76,NE,40,0.0,3.1,75,0.00,,---,0.00,cosweather0.1e,2013-07-12 06:57:00,